Find Starlink 37253

NORAD ID: 68606 Int'l Des: 2026-073 Owner: SPXS Country: US Constellation: starlink operational
LEOCIRCULARRETROGRADE

当前视图

正在加载3D地球...

About Starlink 37253

Starlink 37253 (NORAD 68606) is a starlink constellation satellite (v2 mini) launched Apr 7, 2026 by SPXS of US. It operates in LEO, CIRCULAR, RETROGRADE orbit with a mass of 575.00 kg.

即将过境

Passes for default location (London). Set your location on the main map for personalized predictions.

高度历史

Loading altitude history...

两行轨道根数

1 68606U 26073E 26238.11597473 .00021898 00000-0 67874-3 0 9995
2 68606 97.2847 76.5390 0001550 97.7164 262.4255 15.33440088 21858
Epoch: Aug 26, 2026 • Age: 5 hours

当前状态

高度 470.5 km
远地点 / 近地点 N/A
速度 7.64 km/s
星下点 39.74°N, 166.88°E
发射日期 Apr 7, 2026
运行时间 0.3 years
类型 internet

技术详情

分类 Payload
质量 575.00 kg
干质量 530.00 kg
总质量 575.00 kg
长度 0.30 m
直径 4.10 m
跨度 29.00 m
形状 Box + pan
制造商 SPXS
平台类型 Starlink V2MO
阶段状态 In Orbit
所有者/国家 SPXS/US

Most Searched